Content
SEND FEEDBACK

Daily
Averages
Monthly
Summary
Canada

MONTREAL, QUEBEC


Home > North America > Canada > Quebec
Elevation: 35 meters     Latitude: 45 28N     Longitude: 073 45W

WEATHER
 
SELECT A DAY
Number of Records: 201,418;   Date Range: 1/1/95 - 10/20/14
 
SHARE

PRINT THIS DATA

[ ← Previous Day ]
WEATHER ALMANAC - 5 FEBRUARY, 2013
[ Next Day → ]
[ °F ]   °C
Weather ElementAverageHighLow
Temperature-13.6 °C-9 °C (6:00 pm)-19 °C (4:00 am)
Dewpoint-22.2 °C-18 °C (6:00 pm)-26.1 °C (1:00 am)
Humidity47.4 %61 % (9:00 am)31 % (1:00 pm)
Barometer1015.9 hPa1017.9 hPa (9:00 am)1012.9 hPa (11:00 pm)
Wind Speed7.1 km/h13 km/h (12:00 pm)
Weather ElementAverage
Visibility35.6 km
Wind DirectionSSE (164.4 °)

Weather ElementTotal
Precipitation---
Heating Degree Days32.3 (Base 18.3)
Averaged from 27 records on 5 February, 2013
WEATHER CONDITIONS BREAKOUT
WIND DIRECTION BREAKOUT
WEATHER BY HOUR - 5 FEBRUARY, 2013
[ °F ]   °C
Local TimeTemperatureDewpointHumidityBarometerVisibilityWind DirectionWind SpeedGust SpeedPrecipitationEventsConditions
1:00 AM-17.8 °C-26.1 °C33 %1015.6 hPa24.1 kmWNW (290°)11.1 km/h
1:00 AM-17 °C-26 °C47 %1015.6 hPa24.1 kmWNW (290°)11.1 km/hClear
2:00 AM-18 °C-25 °C55 %1016.3 hPa24.1 kmWest (280°)7.4 km/hClear
3:00 AM-18 °C-26 °C51 %1016.3 hPa24.1 kmWest (270°)7.4 km/hClear
4:00 AM-19 °C-26 °C55 %1016.6 hPa24.1 kmWNW (290°)5.6 km/hClear
5:00 AM-19 °C-25 °C60 %1016.9 hPa24.1 kmNW (320°)3.7 km/hClear
6:00 AM-18 °C-26 °C51 %1017.3 hPa24.1 kmNE (40°)3.7 km/hClear
7:00 AM-18.9 °C-25.6 °C40 %1017.3 hPa45.1 kmNE (50°)3.7 km/hClear
7:00 AM-19 °C-26 °C55 %1017.3 hPa48.3 kmNE (50°)3.7 km/hPartly Cloudy
8:00 AM-17 °C-24 °C56 %1017.6 hPa48.3 kmEast (90°)3.7 km/hPartly Cloudy
9:00 AM-16 °C-22 °C61 %1017.9 hPa48.3 kmWSW (240°)7.4 km/hPartly Cloudy
10:00 AM-15 °C-23 °C52 %1017.9 hPa48.3 kmSouth (180°)7.4 km/hPartly Cloudy
11:00 AM-14 °C-22 °C52 %1017.9 hPa48.3 kmSouth (170°)9.3 km/hPartly Cloudy
12:00 PM-12 °C-21 °C48 %1017.6 hPa48.3 kmSSW (210°)13 km/hPartly Cloudy
1:00 PM-11.7 °C-21.1 °C31 %1016.6 hPa45.1 kmSSW (200°)5.6 km/hClear
1:00 PM-11 °C-21 °C45 %1016.6 hPa48.3 kmSW (220°)5.6 km/hPartly Cloudy
2:00 PM-11 °C-21 °C45 %1016.3 hPa48.3 kmSW (230°)5.6 km/hScattered Clouds
3:00 PM-10 °C-22 °C38 %1015.9 hPa48.3 kmSouth (190°)3.7 km/hMostly Cloudy
4:00 PM-10 °C-21 °C41 %1015.6 hPa48.3 kmCalmMostly Cloudy
5:00 PM-10 °C-20 °C45 %1015.2 hPa48.3 kmSE (140°)3.7 km/hOvercast
6:00 PM-9 °C-18 °C49 %1014.9 hPa24.1 kmSE (130°)11.1 km/hOvercast
7:00 PM-9.4 °C-18.3 °C33 %1014.6 hPa24.1 kmESE (110°)13 km/hOvercast
7:00 PM-10 °C-18 °C53 %1014.6 hPa24.1 kmESE (110°)11.1 km/hOvercast
8:00 PM-9 °C-19 °C45 %1014.2 hPa24.1 kmEast (90°)9.3 km/hOvercast
9:00 PM-10 °C-19 °C49 %1013.9 hPa24.1 kmEast (80°)9.3 km/hOvercast
10:00 PM-9 °C-19 °C45 %1013.5 hPa24.1 kmENE (70°)7.4 km/hOvercast
11:00 PM-9 °C-19 °C45 %1012.9 hPa24.1 kmEast (100°)9.3 km/hMostly Cloudy
Hourly data recorded from CYUL, located 0 kilometers away from Montreal, Quebec







STORIES FROM OUR PARTNERS